Location: Zagreb
(45.8000°N, 16.0000°E)
Time: 12:36:27
(UTC+01:00)

Vanguard 2 - All Passes

Search period start: 19 January 2022 00:00
Search period end: 29 January 2022 00:00
Orbit: 553 x 2936 km, 32.9° (Epoch: 19 January)

Date Brightness Start Highest point End Pass type
(mag) Time Alt. Az. Time Alt. Az. Time Alt. Az.
19 Jan - 00:23:30 10° WSW 00:38:11 52° S 00:54:57 10° ESE visible
19 Jan - 02:33:56 10° W 02:49:25 42° SSW 03:04:19 10° SE visible
19 Jan - 04:47:35 10° W 04:59:08 22° SW 05:09:25 10° S visible
19 Jan - 20:26:40 10° SSW 20:35:28 26° SE 20:47:13 10° E visible
19 Jan - 22:32:22 10° SW 22:44:39 46° SSE 23:00:53 10° E visible
20 Jan - 00:41:00 10° WSW 00:55:40 51° S 01:12:20 10° ESE visible
20 Jan - 02:51:47 10° W 03:06:41 37° SSW 03:21:03 10° SSE visible
20 Jan - 05:07:03 10° WSW 05:15:59 16° SW 05:24:12 10° SSW visible
20 Jan - 20:43:05 10° SSW 20:52:27 31° SSE 21:05:24 10° E visible
20 Jan - 22:49:36 10° WSW 23:02:03 49° S 23:18:32 10° ESE visible
21 Jan - 00:58:33 10° W 01:13:09 48° SSW 01:29:36 10° SE visible
21 Jan - 03:09:49 10° W 03:23:52 32° SSW 03:37:28 10° SSE visible
21 Jan - 05:28:56 10° WSW 05:32:47 11° SW 05:36:30 10° SW visible
21 Jan - 18:57:24 10° SSE 19:01:52 14° SE 19:07:10 10° ESE visible
21 Jan - 20:59:48 10° SW 21:09:33 36° SSE 21:23:23 10° E visible
21 Jan - 23:06:55 10° WSW 23:19:29 50° S 23:36:05 10° ESE visible
22 Jan - 01:16:11 10° W 01:30:34 45° SSW 01:46:40 10° SE visible
22 Jan - 03:28:07 10° W 03:40:58 26° SW 03:53:28 10° SSE visible
22 Jan - 19:12:32 10° S 19:18:39 18° SE 19:26:33 10° E visible
22 Jan - 21:16:46 10° SW 21:26:45 41° SSE 21:41:12 10° E visible
22 Jan - 23:24:19 10° WSW 23:36:58 50° S 23:53:34 10° ESE night (unlit)
23 Jan - 01:33:55 10° W 01:47:57 40° SSW 02:03:32 10° SE visible
23 Jan - 03:46:53 10° W 03:57:59 21° SW 04:08:52 10° S visible
23 Jan - 19:28:33 10° S 19:35:31 24° SE 19:45:07 10° E visible
23 Jan - 21:33:52 10° SW 21:44:02 44° SSE 21:58:55 10° E visible
23 Jan - 23:41:48 10° WSW 23:54:26 48° S 00:10:55 10° ESE night (unlit)
24 Jan - 01:51:46 10° W 02:05:16 35° SSW 02:20:08 10° SSE visible
24 Jan - 04:06:38 10° WSW 04:14:57 15° SW 04:23:12 10° SSW visible
24 Jan - 19:45:02 10° SSW 19:52:30 29° SSE 20:03:18 10° E visible
24 Jan - 21:51:05 10° WSW 22:01:24 46° S 22:16:33 10° ESE visible
24 Jan - 23:59:21 10° WSW 00:11:54 45° SSW 00:28:06 10° SE visible
25 Jan - 02:09:51 10° W 02:22:31 30° SSW 02:36:22 10° SSE visible
25 Jan - 04:30:55 10° SW 04:31:53 10° SW 04:32:51 10° SW visible
25 Jan - 18:00:39 10° SE 18:02:28 11° SE 18:04:25 10° ESE visible
25 Jan - 20:01:48 10° SSW 20:09:35 33° SSE 20:21:15 10° E visible
25 Jan - 22:08:25 10° WSW 22:18:50 47° S 22:34:06 10° ESE visible
26 Jan - 00:16:58 10° W 00:29:21 41° SSW 00:45:06 10° SE visible
26 Jan - 02:28:15 10° W 02:39:43 24° SW 02:52:07 10° S visible
26 Jan - 18:15:01 10° S 18:19:16 15° SE 18:24:36 10° ESE visible
26 Jan - 20:18:46 10° SW 20:26:48 37° SSE 20:39:03 10° E visible
26 Jan - 22:25:49 10° WSW 22:36:16 46° S 22:51:32 10° ESE visible
27 Jan - 00:34:43 10° W 00:46:46 37° SSW 01:01:51 10° SE visible
27 Jan - 02:47:15 10° WSW 02:56:52 18° SW 03:07:07 10° S visible
27 Jan - 18:30:57 10° S 18:36:11 20° SE 18:43:14 10° ESE visible
27 Jan - 20:35:54 10° SW 20:44:05 40° SSE 20:56:45 10° ESE visible
27 Jan - 22:43:18 10° WSW 22:53:44 44° S 23:08:49 10° ESE visible
28 Jan - 00:52:38 10° W 01:04:08 31° SSW 01:18:17 10° SSE visible
28 Jan - 03:07:40 10° WSW 03:13:58 13° SW 03:20:33 10° SSW visible
28 Jan - 18:47:26 10° SSW 18:53:12 24° SSE 19:01:25 10° ESE visible
28 Jan - 20:53:08 10° WSW 21:01:26 42° S 21:14:20 10° ESE visible
28 Jan - 23:00:51 10° WSW 23:11:13 41° SSW 23:25:56 10° SE visible
